Retour au catalogue

THEMIS A

ActifScienceHEO
NORAD 30580·PAYLOAD·🇺🇸 United States

Lancé Feb 17, 2007 depuis Cape Canaveral Space Force Station

Loading…

Prochains Passages (prochaines 24 heures)

TLE

FraisSource: Space-Track

Époque: Sep 11, 2026, 21:08 UTC

1 30580U 07004A   26254.88092799 -.00000381  00000-0  00000-0 0  9991
2 30580   9.2869 102.0917 8335920 216.3204  38.7536  0.87844073 42043

Suivez THEMIS A en temps réel avec AllMySat

Download on the App Store